Regional Weather Roundup
Issued by NWS

Home | Current Version | Previous Version | Graphics & Text | Print | Product List | Glossary On
Versions: 1 2 3 4 5 6 7 8 9 10 11 12 13 14 15 16 17 18 19 20 21 22 23 24 25 26 27 28 29 30 31 32 33 34 35 36 37 38 39 40 41 42 43 44 45 46 47 48 49 50
000
ASUS43 KBIS 252001
RWRND

NORTH DAKOTA REGIONAL WEATHER ROUNDUP
NATIONAL WEATHER SERVICE BISMARCK ND
300 PM CDT MON MAY 25 2015

NOTE: "FAIR" INDICATES FEW OR NO CLOUDS BELOW 12,000 FEET WITH NO
SIGNIFICANT WEATHER AND/OR OBSTRUCTIONS TO VISIBILITY.


NDZ001>003-009>011-017-252100-
NORTHWEST NORTH DAKOTA

CITY           SKY/WX    TMP DP  RH WIND       PRES   REMARKS
WILLISTON      CLOUDY    75  44  33 SE7       29.85S
MINOT          PTSUNNY   78  42  27 NE12      29.81F
MINOT AFB      MOSUNNY   76  42  29 E2        29.80F
$$

NDZ018>021-031>035-040>046-252100-
SOUTHWEST NORTH DAKOTA

CITY           SKY/WX    TMP DP  RH WIND       PRES   REMARKS
BISMARCK       CLOUDY    67  54  63 W5        29.85F
DICKINSON      CLOUDY    62  53  72 E8        29.88S
GARRISON         N/A     74  47  38 E6        29.83F
HETTINGER ARPT CLOUDY    59  54  83 E13       29.90R
$$

NDZ004>008-012>016-024-026-027-054-252100-
NORTHEAST NORTH DAKOTA

CITY           SKY/WX    TMP DP  RH WIND       PRES   REMARKS
GRAND FORKS    CLOUDY    74  50  42 VRB5      29.75S
GRND FRKS AFB  CLOUDY    74  48  40 VRB1      29.76S
DEVILS LAKE    MOSUNNY   79  36  21 NE13G20   29.77S
$$

NDZ022-023-025-028>030-036>039-047>053-252100-
SOUTHEAST NORTH DAKOTA

CITY           SKY/WX    TMP DP  RH WIND       PRES   REMARKS
FARGO          CLOUDY    65  54  67 NE14      29.77S
JAMESTOWN      PTSUNNY   72  51  47 VRB5      29.77F
$$




USA.gov is the U.S. government's official web portal to all federal, state and local government web resources and services.